OBJECT AA, 43900

Orbit data source: Space-Track

You're viewing an Uncataloged Satellite

Recently launched and/or uncataloged satellites may have evolving metadata. Metadata may include but not limited to: Owner, Maufacturer, Bus, Motor, and Mission.

OBJECT AA, 43900 is a satellite in SSO that was launched on Thu, 27 Dec 2018 UTC via a SOYUZ-2-1A launch vehicle from the Vostochny Cosmodrome (VOSTO). Unknown objects in Earth's orbit typically refer to objects detected orbiting the Earth but have not yet been identified or cataloged. These objects could be anything from previously untracked satellites, spent rocket stages, debris from satellite collisions, or even natural meteoroids temporarily captured by Earth's gravity.

Not visible in the next 10 days
Identifier
43900, 2018-111AA
Orbit
SSO
Last TLE update
6 hours ago
Origin
Flag of TBDROSK (TBD)
Manufacturer
Roskosmos
Mission
Spacecraft
Bus & Motor
Unknown
Mass
10 kg wet, 10 kg dry
Launch date (UTC)
2018-12-27 (7 years ago)
Launch vehicle
SOYUZ-2-1A
Launch site
Vostochny Cosmodrome (VOSTO)
Object type
Unknown
Shape & HBR
Box, 0.3 m
Radar Cross Section
0.080 m², Medium (>0.1 m² and < 1m²)

Expand to show TLE details & history

TLE from 6 hours ago
0 OBJECT AA
1 43900U 18111AA  25182.18946808  .00016028  00000-0  23231-3 0  9991
2 43900  97.0158  45.0821 0012724  49.4927 310.7434 15.55836850363616
Epoch: 2025-07-01T04:32Z
TLE epoch observation values (Epoch: 2025-07-01T04:32:50.042Z)
Latitude
-0.0001°
Longitude
57.38511°
Altitude
397.247 km
Speed
7.675 km/s
True Right ascension
03h 00m 19s
True Declination
0° 00' 00"
Sunlit
Object was in daylight at epoch
Visualization orbit readout
Latitude
-55.20099°
Longitude
-132.52615°
Altitude
429.748 km
Speed
7.647 km/s
Apparent Right ascension
11h 47m 36s
Apparent Declination
-52° 46' 49"
Sunlit
Object is in full shadow
Visualization observer readout
Local Sidereal Time
21:49:38
Azimuth
227.492° WSW
Elevation
-66.176°
Doppler factor
1
Orbital elements
Apogee altitude
405.243 km
Perigee altitude
388.003 km
Semi-major axis
6,774.76 km
Eccentricity
0.00127
Inclination
97.0158°
RAAN
45.0821°
Arg. of periapsis
49.4927°
True anomaly
Unknown
Mean anomaly
310.7434°
Eccentric anomaly
Unknown
Mean motion
3.89226 °/min
Orbital period
92.49 mins
BSTAR
0.00023231
Loading maneuver chart data...
Loading SW <> Apogee altitude chart data...
Loading historical data...
Loading historical data...
Loading historical data...
Loading historical data...
Loading historical data...
Loading historical data...
Loading historical data...

OBJECT AA Visibility

Observer location: undefined°, undefined°

OBJECT AA is likely not visible in the next few days
Span
Click to sort rows by Start time (UTC) header in descending order
Start Az.
Max El. time (UTC)
Max El. Az.
Max El.
End time (UTC)
End Az.
|